Time,TemperatureF,DewpointF,PressureIn,WindDirection,WindDirectionDegrees,WindSpeedMPH,WindSpeedGustMPH,Humidity,HourlyPrecipIn,Conditions,Clouds,dailyrainin,SolarRadiationWatts/m^2,SoftwareType,DateUTC
2013-02-12 00:00:00,26.0,21.0,-100.00,WNW,292,12.0,-999.0,81,-99.99,,,-99.99,0.000000,,2013-02-12 06:00:00,
2013-02-12 00:42:00,26.0,21.0,-100.00,WNW,292,12.0,-999.0,81,-99.99,,,-99.99,0.000000,,2013-02-12 06:42:00,
2013-02-12 00:52:00,26.0,21.0,-100.00,WNW,292,12.0,-999.0,81,-99.99,,,-99.99,0.000000,,2013-02-12 06:52:00,
2013-02-12 03:00:00,25.0,18.0,-100.00,WNW,292,13.0,-999.0,76,-99.99,,,-99.99,0.000000,,2013-02-12 09:00:00,
2013-02-12 03:42:00,25.0,18.0,-100.00,WNW,292,13.0,-999.0,76,-99.99,,,-99.99,0.000000,,2013-02-12 09:42:00,
2013-02-12 03:52:00,25.0,18.0,-100.00,WNW,292,13.0,-999.0,76,-99.99,,,-99.99,0.000000,,2013-02-12 09:52:00,
2013-02-12 06:00:00,23.0,17.0,-100.00,West,270,13.0,-999.0,77,-99.99,,,-99.99,0.000000,,2013-02-12 12:00:00,
2013-02-12 06:42:00,23.0,17.0,-100.00,West,270,13.0,-999.0,77,-99.99,,,-99.99,0.000000,,2013-02-12 12:42:00,
2013-02-12 06:53:00,23.0,17.0,-100.00,West,270,13.0,-999.0,77,-99.99,,,-99.99,0.000000,,2013-02-12 12:53:00,
2013-02-12 09:00:00,23.0,18.0,-100.00,WNW,292,8.0,-999.0,80,-99.99,,,-99.99,54.520000,,2013-02-12 15:00:00,
2013-02-12 09:42:00,23.0,18.0,-100.00,WNW,292,8.0,-999.0,80,-99.99,,,-99.99,54.520000,,2013-02-12 15:42:00,
2013-02-12 09:52:00,23.0,18.0,-100.00,WNW,292,8.0,-999.0,80,-99.99,,,-99.99,54.520000,,2013-02-12 15:52:00,
2013-02-12 15:00:00,24.0,17.0,-100.00,WSW,247,10.0,-999.0,76,-99.99,,,-99.99,138.039993,,2013-02-12 21:00:00,
2013-02-12 15:42:00,24.0,17.0,-100.00,WSW,247,10.0,-999.0,76,-99.99,,,-99.99,138.039993,,2013-02-12 21:42:00,
2013-02-12 15:52:00,24.0,17.0,-100.00,WSW,247,10.0,-999.0,76,-99.99,,,-99.99,138.039993,,2013-02-12 21:52:00,
2013-02-12 18:00:00,22.0,16.0,-100.00,SW,225,6.0,-999.0,75,-99.99,,,-99.99,2.320000,,2013-02-13 00:00:00,
2013-02-12 18:42:00,22.0,16.0,-100.00,SW,225,6.0,-999.0,75,-99.99,,,-99.99,2.320000,,2013-02-13 00:42:00,
2013-02-12 18:52:00,22.0,16.0,-100.00,SW,225,6.0,-999.0,75,-99.99,,,-99.99,2.320000,,2013-02-13 00:52:00,
2013-02-12 21:00:00,24.0,17.0,-100.00,WSW,247,9.0,-999.0,73,-99.99,,,-99.99,0.000000,,2013-02-13 03:00:00,
2013-02-12 21:42:00,24.0,17.0,-100.00,WSW,247,9.0,-999.0,73,-99.99,,,-99.99,0.000000,,2013-02-13 03:42:00,
2013-02-12 21:52:00,24.0,17.0,-100.00,WSW,247,9.0,-999.0,73,-99.99,,,-99.99,0.000000,,2013-02-13 03:52:00,